Other Public Products
Issued by NWS Charleston, SC

Current Version | Previous Version | Graphics & Text | Print | Product List | Glossary On
Versions: 1 2 3 4 5 6 7 8 9 10 11 12 13 14 15 16 17 18 19 20 21 22 23 24 25 26 27 28 29 30 31 32 33 34 35 36 37 38 39 40 41 42 43 44 45 46 47 48 49 50
400
FPUS82 KCHS 171427
OPUCHS

TEST...KCHS/KSAV Gateway Observations...TEST
National Weather Service Charleston SC
900 AM EST SAT FEB 17 2018

NOTE: "fair" indicates few or no clouds below 12,000 feet with no
significant weather and/or obstructions to visibility.

SCZ050-WAZ558-NCZ071-TXZ119-213-PAZ071-DCZ001-FLZ074-172-MI076-
NYZ176-178-MAZ016-IL014-TNZ027-NJZ106-GAZ044-MD014-171500-

...Gateway Observations for Charleston International...

CITY           SKY/WX    TMP DP  RH WIND       PRES   REMARKS
Chas Airport   PTSUNNY   64  56  75 E15G23    30.20R
Seattle        LGT RAIN  44  41  89 SW16G25   29.87F
Charlotte      CLOUDY    51  37  58 E10       30.24S
Dallas DFW     RAIN      44  42  93 N8        30.09R FOG
Dallas Love    LGT RAIN  43  41  93 N6        30.12R FOG
Philladelphia  PTSUNNY   32  15  49 NE9       30.41S WCI  24
Wash National  PTSUNNY   37  23  56 NE10      30.39F WCI  30
Baltimore      PTSUNNY   35  23  61 E10       30.38R WCI  27
Miami          FAIR      76  65  68 N3        30.22R
Detroit        CLOUDY    27  22  81 S7        30.20F WCI  19
Newark         PTSUNNY   33  15  47 N8        30.42S WCI  26
Laguardia      PTSUNNY   33  17  51 N6        30.42S WCI  28
J F K          PTSUNNY   33  18  53 N12       30.43S WCI  24
Boston Logan   FAIR      30   7  37 NW12      30.43R WCI  20
Ft. Lauderdale FAIR      75  67  76 CALM      30.21R
Chicago O`Hare CLOUDY    21   9  59 S9        30.09F WCI  11
Chicago Midway CLOUDY    21  11  65 S6        30.10F WCI  13
Houston Bush   CLOUDY    65  63  93 CALM      30.08R
Houston Hobby  CLOUDY    69  69 100 S3        30.08R
Nashville      LGT RAIN  41  39  93 NE9       30.07F FOG
Atlanta        CLOUDY    54  50  86 E6        30.15R

$$

GAZ044-118-TXZ119-213-NCZ071-DCZ001-MDZ014-506-PAZ021-071-NJZ106-
NYZ176-178-MAZ106-OHZ011-021-055-MIZ076-KYZ091-ILZ014-INZ047-
MNZ060-ONZ431-171500-

...Gateway Observations for Savannah International...

CITY           SKY/WX    TMP DP  RH WIND       PRES   REMARKS
Savannah Arpt  PTSUNNY   65  59  81 E10       30.18S
Atlanta        CLOUDY    54  50  86 E6        30.15R
Charlotte      CLOUDY    51  37  58 E10       30.24S
Dallas DFW     RAIN      44  42  93 N8        30.09R FOG
Houston Bush   CLOUDY    65  63  93 CALM      30.08R
Wash National  PTSUNNY   37  23  56 NE10      30.39F WCI  30
Wash Dulles    PTSUNNY   35  22  58 E10       30.37S WCI  27
Baltimore      PTSUNNY   35  23  61 E10       30.38R WCI  27
Philadelphia   PTSUNNY   32  15  49 NE9       30.41S WCI  24
Newark         PTSUNNY   33  15  47 N8        30.42S WCI  26
Laguardia      PTSUNNY   33  17  51 N6        30.42S WCI  28
J F K          PTSUNNY   33  18  53 N12       30.43S WCI  24
Boston         FAIR      30   7  37 NW12      30.43R WCI  20
Pittsburg      CLOUDY    28  20  71 E7        30.22F WCI  21
Akron          PTSUNNY   29  19  66 S5        30.21S WCI  24
Cleveland      CLOUDY    32  21  64 S12       30.26R WCI  23
Cincinnati     CLOUDY    33  28  81 E7        30.17S WCI  27
Columbus       FAIR      31  27  86 CALM      30.22R
Detroit        CLOUDY    27  22  81 S7        30.20F WCI  19
Chicago O`Hare CLOUDY    21   9  59 S9        30.09F WCI  11
Minneapolis    LGT SNOW  24  22  91 SW7       29.89R FOG     WCI  16
Indianapolis   CLOUDY    30  25  81 SE8       30.15F WCI  22
Toronto Canada PTSUNNY   27  19  74 S8        30.23F WCI  18

$$




USA.gov is the U.S. government's official web portal to all federal, state and local government web resources and services.